Location: Fisheating Creek Campgrounds
(26.9333°N, 81.3167°W)
Time: 04:24:11
(UTC-04:00)

Cosmos 2221 Rocket - Visible Passes

Search period start: 25 April 2014 00:00
Search period end: 05 May 2014 00:00
Orbit: 622 x 650 km, 82.5° (Epoch: 24 April)

Date Brightness Start Highest point End Pass type
(mag) Time Alt. Az. Time Alt. Az. Time Alt. Az.
25 Apr 5.1 05:29:13 10° NNE 05:33:28 40° E 05:37:44 10° SSE visible
26 Apr 3.6 05:51:38 10° N 05:56:11 83° W 06:00:44 10° S visible
27 Apr 6.6 04:38:10 10° NE 04:40:34 14° ENE 04:42:57 10° ESE visible
27 Apr 4.3 06:14:42 10° NNW 06:18:47 33° W 06:22:51 10° SSW visible
28 Apr 5.4 04:59:20 10° NNE 05:03:25 32° E 05:07:30 10° SE visible
29 Apr 3.7 05:21:36 10° N 05:26:10 80° E 05:30:42 10° S visible
30 Apr 6.7 04:09:00 10° ENE 04:10:28 11° ENE 04:11:56 10° E visible
30 Apr 4.0 05:44:31 10° NNW 05:48:47 41° W 05:53:03 10° SSW visible
01 May 5.6 04:29:31 10° NNE 04:33:22 27° E 04:37:11 10° SE visible
01 May 5.1 06:08:17 10° NW 06:11:17 18° W 06:14:18 10° SW visible
02 May 4.0 04:51:36 10° N 04:56:07 64° E 04:59:16 19° SSE visible
03 May 3.8 05:14:21 10° NNW 05:18:46 51° W 05:20:33 32° SSW visible
04 May 5.8 03:59:45 10° NNE 04:03:17 22° E 04:04:38 19° ESE visible
04 May 4.9 05:37:51 10° NW 05:41:18 21° W 05:42:04 21° WSW visible
